[[{"header":{"parameterUnit":"m.s-1","parameterCategory":2,"la1":30.2991,"la2":30.254,"lo1":-89.0895,"lo2":-89.0444,"dy":0.0017,"dx":0.0017,"nx":28,"ny":28,"refTime":"2024-05-03T09:00:00:Z","depth":"0","parameterNumber":2,"parameterNumberName":"U-component_of_CURRENTS"},"data":[0,0,0,0,0,0,0,0,0,0,0,0,0,0,0,0,0,0,0,0,0,0,0,0,0,0,0,0,0,0,0,0,0,0,0,0,0,0,0,0,0,0,0,0,0,0,0,0,0,0,0,0,0,0,0,0,0,0,0.1694,0.1694,0,0.1693,0.1693,0.1693,0.1668,0.1667,0.1667,0.1666,0.1675,0.1676,0.1677,0,0,0,0,0,0,0,0,0,0,0,0,0,0.1622,0.1624,0.1694,0.1694,0.1694,0.1693,0.1693,0.1693,0.1668,0.1667,0.1666,0.1666,0.1675,0.1676,0.1677,0,0,0,0,0,0,0,0,0,0,0,0,0,0.1641,0.1624,0.1694,0.1681,0.1679,0.1693,0.1693,0.1693,0.1668,0.1667,0.1666,0.1665,0.1675,0.1676,0.1678,0.1709,0,0,0.1682,0.1683,0,0,0,0,0,0,0,0,0.164,0.1644,0.1683,0.1682,0.168,0.1679,0.1671,0.1699,0.1669,0.1674,0.1666,0.1665,0.1678,0.1679,0.1682,0.1709,0.171,0.1682,0.1683,0.1683,0.1684,0,0,0,0,0,0,0,0.1639,0.1644,0.1695,0.1683,0.1681,0.1656,0.1659,0.1676,0.1683,0.1673,0.1671,0.167,0.1677,0.1681,0.1682,0.171,0.1682,0.1683,0.1684,0.1685,0.1735,0.1735,0,0,0,0,0,0,0.1642,0.1643,0.1695,0.1695,0.1656,0.1659,0.1661,0.1681,0.1683,0.1681,0.1671,0.1668,0.1679,0.1681,0.1683,0.1694,0.1683,0.1685,0.1686,0.1734,0.1735,0.1735,0,0,0,0,0,0,0.1641,0.1647,0.1695,0.1666,0.167,0.1662,0.1684,0.1682,0.1681,0.168,0.1679,0.1671,0.1678,0.1681,0.1694,0.1695,0.1685,0.1687,0.1734,0.1735,0.1735,0.1733,0,0,0,0,0,0,0.1639,0.1647,0.1654,0.1668,0.1672,0.17,0.1685,0.1682,0.1681,0.1679,0.1681,0.168,0.1678,0.1692,0.1696,0.1697,0.1688,0.1733,0.1734,0.1735,0.1733,0.1734,0.1735,0,0,0,0,0,0.1637,0.1641,0.1656,0.1661,0.1686,0.17,0.17,0.1689,0.1683,0.1684,0.1686,0.168,0.17,0.1694,0.1698,0.1699,0.1733,0.1734,0.1735,0.1732,0.1734,0.1735,0,0,0,0,0,0,0.1595,0.164,0.1655,0.1669,0.1687,0.1695,0.1689,0.1693,0.1697,0.169,0.1692,0.1693,0.1705,0.1708,0.1701,0.1717,0.1714,0.1716,0.171,0.1712,0.1713,0.1717,0.1689,0,0,0,0,0,0.1598,0.1624,0.1655,0.1666,0.1677,0.169,0.1691,0.1691,0.1697,0.1697,0.17,0.1704,0.1715,0.1716,0.1727,0.1741,0.1766,0.1743,0.1744,0.1745,0.1751,0.1789,0.1794,0.1739,0.1739,0.1739,0,0,0.1583,0.161,0.1623,0.166,0.1673,0.1687,0.1688,0.1692,0.1697,0.17,0.1703,0.1713,0.1722,0.1732,0.1737,0.1731,0.1777,0.1746,0.1746,0.1753,0.1791,0.1796,0.1801,0.174,0.174,0.1739,0,0,0.1567,0.1597,0.1618,0.1638,0.1663,0.1674,0.1679,0.1697,0.1697,0.1709,0.1712,0.1725,0.1736,0.1744,0.1749,0.1766,0.1785,0.1766,0.1769,0.1805,0.181,0.1814,0.1867,0.1876,0.176,0.176,0.176,0,0.1547,0.1583,0.1619,0.1641,0.1652,0.1671,0.1685,0.1693,0.1708,0.172,0.1705,0.1739,0.1741,0.1766,0.1764,0.1768,0.1799,0.1761,0.1806,0.1811,0.1816,0.1869,0.1879,0.176,0.176,0.176,0.176,0,0.1556,0.1579,0.1587,0.1634,0.165,0.166,0.1686,0.17,0.1703,0.1715,0.174,0.1746,0.1769,0.1766,0.1766,0.1802,0.1818,0.1808,0.1802,0.1822,0.1876,0.1887,0.176,0.176,0.176,0.176,0,0,0.1529,0.1585,0.1588,0.1605,0.1647,0.1658,0.1682,0.1713,0.1732,0.1738,0.1767,0.1774,0.1788,0.1796,0.1802,0.1821,0.1878,0.1825,0.1827,0.1877,0.1977,0.1997,0.201,0.1875,0.1877,0.1878,0.2007,0,0.1525,0.1556,0.1591,0.1609,0.1625,0.1663,0.1683,0.1713,0.1736,0.1768,0.1784,0.1809,0.1796,0.181,0.1829,0.1871,0.1904,0.1845,0.1952,0.1956,0.197,0.2022,0.1941,0.2049,0.2017,0.2019,0.2021,0,0.1524,0.1546,0.1567,0.1605,0.1618,0.1633,0.1682,0.1705,0.1763,0.1783,0.1821,0.1843,0.1888,0.1863,0.1948,0.1913,0.195,0.1972,0.1977,0.2003,0.1995,0.2023,0.207,0.1998,0.2037,0.2036,0.2035,0,0.1483,0.1524,0.1536,0.1551,0.1602,0.1623,0.1651,0.1709,0.1743,0.1804,0.1843,0.189,0.193,0.1972,0.2031,0.1996,0.213,0.2087,0.2144,0.2146,0.2103,0.2099,0.209,0.2153,0.2152,0.2152,0.2152,0,0.1465,0.1474,0.1517,0.1527,0.1545,0.1594,0.1628,0.167,0.1745,0.18,0.185,0.1911,0.1958,0.2041,0.207,0.2162,0.2172,0.2169,0.2185,0.2102,0.2096,0.2051,0.2012,0.2157,0.2156,0.2155,0.2154,0,0.1423,0.1452,0.1465,0.1513,0.1527,0.1541,0.1614,0.165,0.1725,0.1807,0.1835,0.1948,0.2066,0.2133,0.2225,0.2228,0.2236,0.2326,0.2238,0.2241,0.2194,0.2158,0.2113,0.2052,0.24,0.2401,0.2402,0,0.1409,0.1409,0.1442,0.1453,0.1477,0.1509,0.1544,0.1625,0.1679,0.1836,0.1882,0.2028,0.2135,0.2296,0.2336,0.2423,0.2314,0.2375,0.2279,0.2204,0.2176,0.2059,0.2001,0.2229,0.2228,0.2228,0.2228,0,0.1377,0.1382,0.1397,0.1415,0.1443,0.1476,0.1537,0.1576,0.1695,0.1788,0.1933,0.2036,0.222,0.2284,0.2403,0.2426,0.2242,0.2371,0.2305,0.2062,0.1922,0.1866,0.2145,0.2225,0.2225,0.2225,0.2225,0.2225,0.1345,0.1343,0.1357,0.1375,0.1407,0.1442,0.146,0.1551,0.1641,0.1783,0.1914,0.2049,0.2178,0.2341,0.2358,0.2304,0.2268,0.2208,0.2183,0.2081,0.1972,0.2264,0.2349,0.2349,0.235,0.2351,0.2352,0,0.1303,0.131,0.1321,0.134,0.1359,0.1395,0.1458,0.1482,0.1575,0.173,0.1861,0.2008,0.2086,0.2159,0.2183,0.2112,0.198,0.2036,0.1826,0.1787,0.2066,0.2007,0.2006,0.2006,0.2006,0.2006,0.2007,0.2007,0.1276,0.1274,0.1283,0.1291,0.131,0.1325,0.1351,0.1407,0.1493,0.1622,0.172,0.1834,0.1964,0.201,0.1955,0.191,0.1739,0.1668,0.1655,0.1826,0.1838,0.1849,0.1783,0.1736,0.1735,0.128,0.1277,0.1274]},{"header":{"parameterUnit":"m.s-1","parameterCategory":2,"la1":30.2991,"la2":30.254,"lo1":-89.0895,"lo2":-89.0444,"dy":0.0017,"dx":0.0017,"nx":28,"ny":28,"refTime":"2024-05-03T09:00:00:Z","depth":"0","parameterNumber":3,"parameterNumberName":"V-component_of_CURRENTS"},"data":[0,0,0,0,0,0,0,0,0,0,0,0,0,0,0,0,0,0,0,0,0,0,0,0,0,0,0,0,0,0,0,0,0,0,0,0,0,0,0,0,0,0,0,0,0,0,0,0,0,0,0,0,0,0,0,0,0,0,0.0346,0.0345,0,0.0304,0.0304,0.0304,0.0277,0.0277,0.0276,0.0276,0.0258,0.0258,0.0258,0,0,0,0,0,0,0,0,0,0,0,0,0,0.0369,0.0369,0.0346,0.0345,0.0344,0.0304,0.0304,0.0304,0.0277,0.0277,0.0276,0.0276,0.0258,0.0258,0.0257,0,0,0,0,0,0,0,0,0,0,0,0,0,0.0349,0.0369,0.0346,0.0325,0.0322,0.0304,0.0304,0.0304,0.0277,0.0277,0.0276,0.0276,0.0258,0.0258,0.0257,0.0267,0,0,0.0257,0.0257,0,0,0,0,0,0,0,0,0.035,0.0348,0.0329,0.0326,0.0323,0.0294,0.0305,0.0292,0.0277,0.0297,0.0276,0.0275,0.0271,0.027,0.0266,0.0266,0.0265,0.0257,0.0257,0.0256,0.0256,0,0,0,0,0,0,0,0.0352,0.035,0.0331,0.0328,0.0325,0.0306,0.0303,0.0303,0.0289,0.0295,0.0292,0.0285,0.027,0.0266,0.0265,0.0265,0.0257,0.0257,0.0256,0.0256,0.0246,0.0246,0,0,0,0,0,0,0.0355,0.0351,0.0333,0.033,0.0333,0.0306,0.0303,0.0305,0.0289,0.0285,0.0285,0.0283,0.0267,0.0265,0.0264,0.0267,0.0256,0.0256,0.0256,0.0246,0.0246,0.0246,0,0,0,0,0,0,0.0356,0.0354,0.0334,0.0337,0.0333,0.0306,0.0309,0.0305,0.03,0.0281,0.0278,0.0284,0.0266,0.0265,0.0264,0.0266,0.0256,0.0256,0.0247,0.0246,0.0246,0.0276,0,0,0,0,0,0,0.0357,0.0355,0.0361,0.0338,0.0333,0.0331,0.0309,0.0304,0.0295,0.0292,0.0279,0.0276,0.0266,0.0265,0.0264,0.0266,0.0256,0.0247,0.0246,0.0246,0.0276,0.0277,0.0279,0,0,0,0,0,0.0358,0.0365,0.0362,0.036,0.0342,0.0331,0.0328,0.0307,0.0295,0.03,0.0286,0.0277,0.0262,0.0265,0.0264,0.0265,0.0247,0.0247,0.0246,0.0275,0.0277,0.0279,0,0,0,0,0,0,0.0385,0.0362,0.0359,0.0361,0.0351,0.0326,0.0322,0.0311,0.0303,0.0299,0.0283,0.028,0.0277,0.0268,0.0271,0.026,0.025,0.025,0.0272,0.0274,0.0276,0.0274,0.0256,0,0,0,0,0,0.0394,0.0395,0.0372,0.038,0.0369,0.0348,0.0341,0.033,0.0316,0.0312,0.0303,0.0288,0.0276,0.0273,0.0264,0.0266,0.0245,0.0262,0.0264,0.0266,0.0262,0.023,0.0228,0.0245,0.0245,0.0245,0,0,0.041,0.0396,0.04,0.0386,0.0371,0.0364,0.0343,0.0334,0.0334,0.0312,0.0312,0.0298,0.0277,0.0274,0.0271,0.0267,0.0252,0.0265,0.0267,0.0263,0.0229,0.0228,0.0226,0.0245,0.0245,0.0245,0,0,0.0435,0.0426,0.0429,0.0417,0.0396,0.0381,0.038,0.0359,0.0352,0.0354,0.0329,0.0315,0.031,0.0288,0.0277,0.0282,0.0261,0.0279,0.0289,0.0258,0.0256,0.0255,0.0237,0.0233,0.0281,0.0281,0.0281,0,0.0462,0.0453,0.0431,0.0425,0.0412,0.039,0.0387,0.038,0.0367,0.0361,0.0359,0.0327,0.0313,0.029,0.029,0.0286,0.0269,0.0286,0.0261,0.0258,0.0256,0.0238,0.0233,0.0283,0.0282,0.0282,0.0282,0,0.0473,0.0471,0.0469,0.0453,0.0442,0.0436,0.0414,0.0413,0.0403,0.0392,0.0376,0.0354,0.0332,0.0324,0.031,0.0284,0.0278,0.0267,0.0258,0.0256,0.0237,0.0232,0.0285,0.0284,0.0284,0.0283,0,0,0.0534,0.0487,0.0489,0.0479,0.0451,0.0445,0.0441,0.0426,0.0423,0.0412,0.0404,0.0374,0.0357,0.0342,0.0318,0.029,0.0264,0.0275,0.0273,0.0261,0.0203,0.0215,0.0211,0.0248,0.0247,0.0246,0.02,0,0.0555,0.0536,0.051,0.0508,0.0494,0.0469,0.0469,0.0456,0.0444,0.0437,0.0403,0.039,0.0365,0.0356,0.0323,0.0281,0.025,0.0278,0.0202,0.02,0.0214,0.0205,0.0224,0.0186,0.0195,0.0194,0.0193,0,0.0571,0.0555,0.054,0.0519,0.0512,0.0512,0.0493,0.0493,0.0473,0.0466,0.0439,0.0416,0.0377,0.0358,0.0278,0.0299,0.0251,0.0215,0.0212,0.0207,0.0202,0.0186,0.0176,0.008,0.0185,0.0186,0.0186,0,0.0597,0.0579,0.0561,0.0553,0.0528,0.0526,0.052,0.0501,0.0505,0.0483,0.0487,0.0431,0.0418,0.0344,0.0282,0.0275,0.02,0.0179,0.0141,0.0142,0.0135,0.0137,0.0026,0.0112,0.0112,0.0112,0.0112,0,0.0615,0.0612,0.0573,0.0568,0.0572,0.0547,0.0552,0.0545,0.0535,0.0553,0.0505,0.051,0.0413,0.0367,0.0291,0.0214,0.0206,0.0139,0.0127,0.0148,0.0152,0.0049,0.0001,0.011,0.011,0.0111,0.0111,0,0.0649,0.0613,0.061,0.0586,0.0582,0.0589,0.0584,0.0596,0.0582,0.0605,0.0604,0.0567,0.052,0.0428,0.032,0.0239,0.0106,0.0125,0.0167,0.016,0.0028,-0.0018,-0.0133,-0.0171,0.0064,0.0064,0.0063,0,0.0656,0.0654,0.0636,0.0636,0.0629,0.0629,0.064,0.0626,0.0644,0.0651,0.0676,0.0637,0.0645,0.0495,0.0349,0.0219,0.0122,0.0123,0.0102,0.002,-0.0042,-0.0074,-0.01,0.0106,0.0106,0.0106,0.0106,0,0.0692,0.0685,0.0678,0.068,0.0687,0.0703,0.0716,0.0737,0.0742,0.0779,0.0826,0.0833,0.0706,0.059,0.0398,0.0294,0.0065,0.0124,0.0017,-0.0037,-0.006,-0.01,0.0145,0.0109,0.0109,0.0108,0.0108,0.0108,0.0724,0.0727,0.0713,0.0723,0.0739,0.0777,0.0804,0.0842,0.0899,0.0981,0.0968,0.1025,0.0814,0.057,0.0397,0.0093,0.009,-0.0007,-0.0061,-0.0089,-0.0118,0.0142,0.0107,0.0107,0.0107,0.0106,0.0106,0,0.0744,0.0741,0.0755,0.0762,0.0799,0.08,0.0857,0.0905,0.1002,0.1109,0.1183,0.1135,0.0877,0.0584,0.0172,-0.0055,-0.0138,-0.0181,-0.0239,-0.0261,-0.0051,-0.0041,-0.0084,-0.0084,-0.0084,-0.0084,-0.0084,-0.0084,0.075,0.075,0.0753,0.0803,0.0827,0.0885,0.0928,0.1024,0.1111,0.1265,0.1332,0.1363,0.1126,0.0379,-0.0138,-0.0258,-0.0406,-0.0433,-0.0516,-0.039,-0.0378,-0.0367,-0.0371,-0.0483,-0.0483,-0.0694,-0.0697,-0.0698]}],[{"header":{"parameterUnit":"m.s-1","parameterCategory":2,"la1":30.2991,"la2":30.254,"lo1":-89.0895,"lo2":-89.0444,"dy":0.0017,"dx":0.0017,"nx":28,"ny":28,"refTime":"2024-05-03T09:00:00:Z","depth":"2","parameterNumber":2,"parameterNumberName":"U-component_of_CURRENTS"},"data":[0,0,0,0,0,0,0,0,0,0,0,0,0,0,0,0,0,0,0,0,0,0,0,0,0,0,0,0,0,0,0,0,0,0,0,0,0,0,0,0,0,0,0,0,0,0,0,0,0,0,0,0,0,0,0,0,0,0,0.1721,0.1721,0,0.1715,0.1715,0.1715,0.1703,0.1703,0.1702,0.1702,0.1716,0.1717,0.1718,0,0,0,0,0,0,0,0,0,0,0,0,0,0.1687,0.1688,0.1721,0.1721,0.1721,0.1715,0.1715,0.1715,0.1703,0.1703,0.1702,0.1702,0.1716,0.1717,0.1718,0,0,0,0,0,0,0,0,0,0,0,0,0,0.1694,0.1688,0.1721,0.1713,0.1713,0.1715,0.1715,0.1715,0.1703,0.1703,0.1702,0.1702,0.1716,0.1717,0.1718,0.1733,0,0,0.1721,0.1721,0,0,0,0,0,0,0,0,0.1694,0.1695,0.1715,0.1714,0.1713,0.1708,0.1708,0.1722,0.1703,0.1708,0.1702,0.1702,0.1715,0.1716,0.1717,0.1734,0.1734,0.1721,0.1721,0.1722,0.1722,0,0,0,0,0,0,0,0.1693,0.1695,0.1719,0.1714,0.1713,0.1698,0.1699,0.171,0.1715,0.1707,0.1706,0.1704,0.1715,0.1716,0.1717,0.1734,0.1721,0.1722,0.1722,0.1723,0.176,0.1761,0,0,0,0,0,0,0.1695,0.1695,0.1719,0.1719,0.1701,0.1699,0.17,0.1711,0.1714,0.1714,0.1705,0.1704,0.1715,0.1716,0.1718,0.1732,0.1722,0.1723,0.1723,0.176,0.1761,0.1761,0,0,0,0,0,0,0.1694,0.1698,0.172,0.1705,0.1707,0.17,0.1712,0.1711,0.171,0.1712,0.1712,0.1705,0.1714,0.1716,0.1733,0.1733,0.1723,0.1724,0.176,0.176,0.1761,0.1764,0,0,0,0,0,0,0.1694,0.1698,0.1706,0.1706,0.1708,0.1722,0.1713,0.1711,0.1709,0.1708,0.1712,0.1713,0.1714,0.1732,0.1734,0.1734,0.1725,0.1759,0.176,0.1761,0.1763,0.1765,0.1766,0,0,0,0,0,0.1693,0.1699,0.1707,0.1709,0.172,0.1722,0.1721,0.1715,0.171,0.1712,0.1719,0.1713,0.1738,0.1733,0.1736,0.1736,0.1759,0.176,0.176,0.1763,0.1764,0.1766,0,0,0,0,0,0,0.1674,0.1698,0.1707,0.1717,0.1722,0.1719,0.1719,0.1716,0.1723,0.1723,0.1724,0.1726,0.1739,0.1741,0.1736,0.175,0.1745,0.1747,0.1746,0.1747,0.1749,0.175,0.1726,0,0,0,0,0,0.1679,0.1695,0.171,0.1714,0.1724,0.1724,0.1724,0.1722,0.1726,0.1727,0.1729,0.1735,0.1746,0.1749,0.1759,0.177,0.1793,0.177,0.1772,0.1773,0.1776,0.1815,0.182,0.1764,0.1764,0.1764,0,0,0.1667,0.1684,0.1689,0.1712,0.1718,0.1727,0.1723,0.1725,0.1725,0.1729,0.1733,0.1743,0.1751,0.1763,0.1768,0.1763,0.1803,0.1774,0.1774,0.1777,0.1816,0.1822,0.1827,0.1765,0.1764,0.1764,0,0,0.1653,0.1676,0.1689,0.1701,0.1717,0.1722,0.1725,0.1731,0.1731,0.1738,0.1744,0.1757,0.1763,0.1773,0.1778,0.1794,0.1811,0.1792,0.1796,0.1834,0.1839,0.1843,0.1891,0.19,0.1789,0.1789,0.1789,0,0.1639,0.1663,0.1687,0.1704,0.1711,0.1722,0.173,0.1735,0.1739,0.1748,0.1738,0.1764,0.1767,0.1791,0.1792,0.1796,0.1826,0.1788,0.1836,0.1841,0.1845,0.1893,0.1903,0.1789,0.1789,0.1789,0.1789,0,0.1641,0.1659,0.1666,0.1698,0.1707,0.1715,0.1731,0.174,0.174,0.1744,0.1765,0.1775,0.1793,0.1791,0.1793,0.1828,0.1843,0.1836,0.1832,0.1851,0.19,0.191,0.179,0.179,0.179,0.179,0,0,0.1617,0.1661,0.1664,0.1676,0.1709,0.171,0.1728,0.1748,0.1762,0.1764,0.1785,0.1794,0.1807,0.1814,0.1824,0.1846,0.1903,0.1853,0.1855,0.1901,0.2002,0.1948,0.1954,0.1908,0.1909,0.191,0.2027,0,0.1613,0.1636,0.1664,0.1674,0.1686,0.1713,0.1727,0.1745,0.1762,0.1787,0.1803,0.1826,0.1814,0.183,0.1852,0.1894,0.1928,0.1873,0.1976,0.198,0.1929,0.1963,0.1805,0.189,0.2037,0.2039,0.204,0,0.1613,0.1629,0.1641,0.1669,0.168,0.1686,0.1721,0.1737,0.1783,0.18,0.1832,0.1855,0.1898,0.188,0.1963,0.1931,0.197,0.1994,0.1999,0.1953,0.1943,0.1892,0.1903,0.2057,0.2056,0.2054,0.2053,0,0.1577,0.1612,0.1617,0.1627,0.1662,0.1673,0.1694,0.1737,0.1767,0.182,0.1855,0.1899,0.1941,0.1983,0.2038,0.201,0.2133,0.2102,0.2095,0.2093,0.1979,0.1963,0.2168,0.2168,0.2168,0.2168,0.2167,0,0.1563,0.1567,0.1599,0.1599,0.1611,0.1646,0.1672,0.1705,0.1771,0.1819,0.1864,0.192,0.197,0.2044,0.2072,0.2123,0.217,0.2108,0.2118,0.1976,0.1959,0.2113,0.2106,0.2172,0.2171,0.217,0.2169,0,0.1525,0.1544,0.1548,0.1581,0.1591,0.1598,0.1661,0.1689,0.1757,0.1829,0.1854,0.196,0.2056,0.2113,0.2203,0.2173,0.222,0.2231,0.2065,0.2052,0.2147,0.2138,0.2222,0.2221,0.222,0.2219,0.2219,0,0.1514,0.1512,0.1526,0.1528,0.1542,0.1567,0.1593,0.1665,0.171,0.1855,0.1893,0.202,0.2092,0.2202,0.219,0.2232,0.2271,0.2087,0.1983,0.215,0.2153,0.2145,0.2137,0.185,0.1847,0.1844,0.1842,0,0.1494,0.1491,0.1494,0.1491,0.1504,0.1531,0.1579,0.1615,0.1719,0.1797,0.1919,0.1993,0.2101,0.2062,0.2101,0.2096,0.2053,0.2027,0.2267,0.1847,0.1805,0.1806,0.181,0.1816,0.1819,0.182,0.1822,0.1823,0.1478,0.1466,0.1456,0.1465,0.1472,0.1491,0.1509,0.1579,0.1651,0.1732,0.1841,0.188,0.1912,0.188,0.1855,0.1829,0.1957,0.1849,0.1856,0.1867,0.1788,0.1745,0.1732,0.1734,0.1736,0.1738,0.1739,0,0.1462,0.1441,0.1438,0.1427,0.143,0.1448,0.1499,0.151,0.1577,0.1619,0.1679,0.1548,0.1548,0.1603,0.1524,0.1517,0.1483,0.1457,0.1398,0.1426,0.1451,0.1348,0.1177,0.1175,0.1173,0.1171,0,0,0.1444,0.1418,0.1419,0.1398,0.1395,0.1383,0.1406,0.1414,0.143,0.1382,0.1356,0.1424,0.153,0.1303,0.1299,0.1228,0.1307,0.1181,0.1639,0.1598,0.1619,0.1695,0.157,0,0,0,0,0]},{"header":{"parameterUnit":"m.s-1","parameterCategory":2,"la1":30.2991,"la2":30.254,"lo1":-89.0895,"lo2":-89.0444,"dy":0.0017,"dx":0.0017,"nx":28,"ny":28,"refTime":"2024-05-03T09:00:00:Z","depth":"2","parameterNumber":3,"parameterNumberName":"V-component_of_CURRENTS"},"data":[0,0,0,0,0,0,0,0,0,0,0,0,0,0,0,0,0,0,0,0,0,0,0,0,0,0,0,0,0,0,0,0,0,0,0,0,0,0,0,0,0,0,0,0,0,0,0,0,0,0,0,0,0,0,0,0,0,0,-0.0038,-0.0039,0,-0.0053,-0.0052,-0.0052,-0.0039,-0.0039,-0.0039,-0.0039,-0.0089,-0.009,-0.0091,0,0,0,0,0,0,0,0,0,0,0,0,0,-0.003,-0.0029,-0.0038,-0.0039,-0.004,-0.0053,-0.0052,-0.0051,-0.0039,-0.0039,-0.0039,-0.0039,-0.0089,-0.009,-0.0091,0,0,0,0,0,0,0,0,0,0,0,0,0,-0.003,-0.0029,-0.0038,-0.0041,-0.0042,-0.0053,-0.0052,-0.0051,-0.0038,-0.0039,-0.0039,-0.0039,-0.0088,-0.009,-0.0091,-0.0095,0,0,-0.0097,-0.0097,0,0,0,0,0,0,0,0,-0.003,-0.0029,-0.004,-0.0041,-0.0042,-0.0051,-0.0068,-0.0071,-0.0038,-0.0031,-0.0039,-0.004,-0.0085,-0.0087,-0.0076,-0.0098,-0.01,-0.0097,-0.0098,-0.0098,-0.0099,0,0,0,0,0,0,0,-0.003,-0.0029,-0.0035,-0.0041,-0.0042,-0.0053,-0.0052,-0.0068,-0.005,-0.0032,-0.0033,-0.0047,-0.0085,-0.0075,-0.0078,-0.01,-0.0097,-0.0098,-0.0099,-0.01,-0.0087,-0.0086,0,0,0,0,0,0,-0.0042,-0.0028,-0.0035,-0.0037,-0.0046,-0.0053,-0.0052,-0.0041,-0.0049,-0.0053,-0.0047,-0.0047,-0.0072,-0.0076,-0.008,-0.0068,-0.0098,-0.01,-0.0101,-0.0088,-0.0087,-0.0085,0,0,0,0,0,0,-0.0042,-0.0042,-0.0035,-0.0041,-0.0042,-0.0054,-0.0042,-0.0042,-0.003,-0.0062,-0.0065,-0.0037,-0.0072,-0.0077,-0.0071,-0.0071,-0.0101,-0.0102,-0.009,-0.0088,-0.0086,-0.0057,0,0,0,0,0,0,-0.0041,-0.004,-0.004,-0.0041,-0.0043,-0.0042,-0.0042,-0.0042,-0.0043,-0.0042,-0.0055,-0.0059,-0.0073,-0.0068,-0.0073,-0.0074,-0.0104,-0.0092,-0.0089,-0.0087,-0.0059,-0.0054,-0.0049,0,0,0,0,0,-0.004,-0.0033,-0.0039,-0.0041,-0.0039,-0.0043,-0.0043,-0.0048,-0.0042,-0.0037,-0.0028,-0.0059,-0.0056,-0.0068,-0.0074,-0.0076,-0.0093,-0.009,-0.0087,-0.0062,-0.0055,-0.0049,0,0,0,0,0,0,-0.0014,-0.0032,-0.0038,-0.0032,-0.0042,-0.0043,-0.0038,-0.0044,-0.003,-0.0026,-0.0042,-0.0046,-0.0043,-0.0054,-0.0067,-0.006,-0.008,-0.0078,-0.0059,-0.0053,-0.0048,-0.0047,-0.0105,0,0,0,0,0,-0.0014,-0.0014,-0.0032,-0.0023,-0.0025,-0.0029,-0.0032,-0.0039,-0.0034,-0.0028,-0.0029,-0.0029,-0.0034,-0.0038,-0.0044,-0.0041,-0.0063,-0.0043,-0.0038,-0.0034,-0.0034,-0.006,-0.0058,-0.0075,-0.0075,-0.0075,0,0,0.0,-0.0011,-0.001,-0.002,-0.0016,-0.002,-0.0027,-0.0028,-0.0025,-0.0038,-0.001,-0.0016,-0.0028,-0.002,-0.0021,-0.0031,-0.0037,-0.003,-0.0026,-0.0029,-0.0057,-0.0055,-0.0054,-0.0073,-0.0074,-0.0074,0,0,0.0017,0.0023,0.0019,0.0012,-0.0006,-0.0009,-0.001,-0.0008,0.0003,0.0012,0.0011,0.0014,0.0011,0.0008,0.0002,0.0032,-0.0011,0.003,0.0052,0.0027,0.0028,0.0028,0.0009,0.0007,0.0034,0.0034,0.0034,0,0.0029,0.0029,0.0018,0.0011,0.0014,-0.0001,0.0002,0.0007,0.0011,0.0025,0.0022,0.0033,0.0021,0.0025,0.0044,0.0039,0.0022,0.0025,0.0031,0.0031,0.003,0.001,0.0008,0.0035,0.0035,0.0035,0.0035,0,0.0043,0.0035,0.0044,0.0031,0.0031,0.0039,0.0031,0.0045,0.0054,0.005,0.0065,0.0061,0.0064,0.0063,0.0061,0.0061,0.005,0.0036,0.0009,0.0033,0.0012,0.0008,0.0038,0.0037,0.0037,0.0036,0,0,0.0093,0.0056,0.0058,0.0055,0.0047,0.0053,0.0068,0.0076,0.0091,0.0089,0.011,0.0107,0.0101,0.0097,0.0091,0.0078,0.0065,0.0063,0.0061,0.0033,0.0015,0.001,0.0005,0.0049,0.0049,0.0048,0.0003,0,0.0112,0.0098,0.0079,0.0086,0.0091,0.0089,0.0105,0.0107,0.0116,0.0133,0.012,0.0132,0.0113,0.0121,0.0101,0.008,0.0058,0.0079,0.0006,0.0004,-0.0014,0.0002,0.0021,-0.0018,-0.0001,-0.0001,-0.0002,0,0.0136,0.0123,0.0129,0.0118,0.0125,0.0127,0.0164,0.0175,0.0181,0.0187,0.0182,0.0168,0.0161,0.0138,0.0086,0.0102,0.0061,0.0035,0.0032,0.0013,-0.0008,-0.0039,-0.0025,-0.0007,-0.0007,-0.0007,-0.0006,0,0.0187,0.0164,0.0175,0.0176,0.0161,0.0178,0.0185,0.0197,0.0223,0.0229,0.0241,0.0206,0.021,0.0146,0.0098,0.009,0.0036,0.0011,-0.0039,-0.004,-0.0045,-0.0045,-0.0041,-0.0041,-0.0041,-0.0041,-0.0041,0,0.0221,0.0226,0.0198,0.0205,0.0228,0.0219,0.0256,0.0257,0.0274,0.031,0.0276,0.0293,0.0213,0.0175,0.0107,0.0033,0.0035,-0.0034,-0.0052,-0.0031,-0.003,-0.0039,-0.0039,-0.0043,-0.0042,-0.0042,-0.0042,0,0.0252,0.0245,0.0255,0.0246,0.0248,0.0275,0.0294,0.0322,0.0334,0.0381,0.0389,0.0362,0.0321,0.0234,0.0144,0.006,-0.0018,-0.0048,-0.0012,-0.0026,-0.0084,-0.0081,-0.0122,-0.0123,-0.0123,-0.0123,-0.0124,0,0.0248,0.0257,0.0275,0.03,0.0295,0.0325,0.0348,0.0359,0.0394,0.0432,0.0459,0.0434,0.0432,0.0291,0.0149,0.0017,-0.0002,-0.0071,-0.0091,-0.0079,-0.0093,-0.0089,-0.0085,-0.0084,-0.0084,-0.0084,-0.0084,0,0.0242,0.0268,0.0278,0.0315,0.0352,0.0391,0.0424,0.0459,0.0497,0.0545,0.0601,0.0606,0.0478,0.0356,0.0162,0.0065,-0.0051,-0.0076,-0.0075,-0.0063,-0.0046,-0.0058,-0.0056,-0.0084,-0.0084,-0.0084,-0.0084,-0.0084,0.0236,0.025,0.028,0.0316,0.0378,0.0448,0.0486,0.0547,0.0623,0.0698,0.0696,0.071,0.055,0.0315,0.0148,-0.004,-0.0037,-0.0115,-0.0114,-0.0113,-0.0097,-0.0082,-0.0123,-0.0123,-0.0123,-0.0123,-0.0124,0,0.0196,0.0233,0.0269,0.0327,0.0382,0.0432,0.0526,0.0572,0.0682,0.0769,0.0824,0.0677,0.0538,0.0355,0.0086,-0.0083,-0.01,-0.0142,-0.012,-0.0119,-0.0118,-0.0102,-0.013,-0.013,-0.0131,-0.0131,0,0,0.0172,0.0193,0.021,0.0295,0.0361,0.046,0.053,0.0622,0.0703,0.0804,0.0835,0.0818,0.0602,0.0402,0.0183,0.0034,-0.0009,-0.0004,0.0019,0.0073,0.0076,-0.0083,-0.0054,0,0,0,0,0]}],[{"header":{"parameterUnit":"m.s-1","parameterCategory":2,"la1":30.2991,"la2":30.254,"lo1":-89.0895,"lo2":-89.0444,"dy":0.0017,"dx":0.0017,"nx":28,"ny":28,"refTime":"2024-05-03T09:00:00:Z","depth":"4","parameterNumber":2,"parameterNumberName":"U-component_of_CURRENTS"},"data":[0,0,0,0,0,0,0,0,0,0,0,0,0,0,0,0,0,0,0,0,0,0,0,0,0,0,0,0,0,0,0,0,0,0,0,0,0,0,0,0,0,0,0,0,0,0,0,0,0,0,0,0,0,0,0,0,0,0,0.0668,0.0668,0,0.0646,0.0646,0.0645,0.064,0.064,0.0641,0.0641,0.073,0.0732,0.0734,0,0,0,0,0,0,0,0,0,0,0,0,0,0.0725,0.0723,0.0668,0.0668,0.0668,0.0646,0.0646,0.0645,0.064,0.064,0.0641,0.0641,0.0729,0.0731,0.0734,0,0,0,0,0,0,0,0,0,0,0,0,0,0.0699,0.0723,0.0668,0.0664,0.0664,0.0646,0.0646,0.0645,0.064,0.064,0.0641,0.0641,0.0728,0.0731,0.0734,0.0742,0,0,0.0743,0.0745,0,0,0,0,0,0,0,0,0.07,0.0697,0.0665,0.0664,0.0664,0.0648,0.0698,0.0684,0.064,0.0646,0.0641,0.0642,0.0714,0.0718,0.0708,0.0746,0.075,0.0744,0.0745,0.0747,0.0748,0,0,0,0,0,0,0,0.0702,0.0698,0.0657,0.0665,0.0664,0.0671,0.0667,0.0695,0.0678,0.0646,0.0646,0.0647,0.0714,0.0705,0.071,0.0751,0.0744,0.0746,0.0748,0.0749,0.0861,0.0863,0,0,0,0,0,0,0.0708,0.0699,0.0658,0.0656,0.0687,0.067,0.0665,0.0651,0.0675,0.0679,0.0647,0.0647,0.0699,0.0707,0.0714,0.0797,0.0747,0.075,0.0751,0.086,0.0862,0.0863,0,0,0,0,0,0,0.0709,0.0703,0.0658,0.068,0.0675,0.0668,0.0652,0.065,0.0665,0.0675,0.0681,0.0666,0.07,0.0709,0.0754,0.0798,0.0751,0.0754,0.0859,0.0861,0.0862,0.0918,0,0,0,0,0,0,0.071,0.0703,0.0708,0.068,0.0674,0.0662,0.0651,0.065,0.0664,0.0665,0.0693,0.07,0.0701,0.0749,0.0757,0.0801,0.0756,0.0857,0.086,0.0862,0.0915,0.0922,0.0928,0,0,0,0,0,0.0712,0.0705,0.0708,0.0704,0.0676,0.0663,0.0661,0.0656,0.0665,0.0672,0.0692,0.07,0.0769,0.0752,0.0761,0.0808,0.0856,0.0859,0.0862,0.0912,0.092,0.0927,0,0,0,0,0,0,0.0731,0.0704,0.0706,0.0692,0.069,0.0663,0.0673,0.0673,0.069,0.0708,0.0713,0.0722,0.0772,0.0781,0.0763,0.0844,0.0815,0.082,0.0851,0.0859,0.0865,0.0852,0.0759,0,0,0,0,0,0.0738,0.0731,0.0711,0.0707,0.0707,0.0699,0.07,0.0701,0.0707,0.0715,0.073,0.0757,0.0785,0.0815,0.0829,0.0883,0.0875,0.0918,0.0925,0.093,0.0925,0.0926,0.0932,0.0871,0.0871,0.0871,0,0,0.0748,0.0733,0.0731,0.0713,0.0712,0.0712,0.07,0.0713,0.0732,0.0726,0.0765,0.0777,0.0799,0.0846,0.0872,0.0867,0.0949,0.0933,0.0938,0.0929,0.0929,0.0935,0.094,0.0873,0.0873,0.0873,0,0,0.0756,0.075,0.0747,0.0747,0.0753,0.0745,0.0756,0.075,0.077,0.0805,0.0805,0.0834,0.0883,0.0895,0.0913,0.0965,0.0971,0.099,0.1031,0.1033,0.1038,0.1042,0.1066,0.1071,0.1008,0.1008,0.1008,0,0.0771,0.076,0.0749,0.075,0.0757,0.0763,0.0772,0.079,0.0804,0.0816,0.0831,0.0874,0.09,0.0945,0.0971,0.098,0.099,0.1003,0.1041,0.1044,0.1047,0.107,0.1075,0.1011,0.101,0.101,0.101,0,0.0777,0.0777,0.0779,0.0779,0.0786,0.0799,0.0816,0.0835,0.0863,0.0869,0.0918,0.0945,0.0968,0.0994,0.101,0.1055,0.106,0.1036,0.102,0.1056,0.1079,0.1084,0.1015,0.1014,0.1013,0.1012,0,0,0.0776,0.0781,0.0786,0.0794,0.0807,0.081,0.0846,0.0862,0.0888,0.0922,0.0954,0.1009,0.1019,0.1039,0.1065,0.1085,0.1136,0.1091,0.1089,0.1112,0.1169,0.1129,0.1129,0.1127,0.1127,0.1128,0.1186,0,0.0786,0.0794,0.0799,0.0819,0.0818,0.0837,0.0862,0.0886,0.092,0.0953,0.0992,0.1033,0.1044,0.1079,0.1101,0.1125,0.1147,0.1124,0.1131,0.1132,0.1088,0.1132,0.1129,0.1189,0.119,0.1191,0.1192,0,0.0784,0.0787,0.0808,0.0824,0.0831,0.0853,0.0887,0.0923,0.0963,0.0986,0.1023,0.1053,0.1113,0.1111,0.1163,0.1155,0.117,0.1178,0.1179,0.1118,0.1098,0.1138,0.1199,0.1199,0.1198,0.1198,0.1197,0,0.077,0.0792,0.0814,0.0822,0.0842,0.0867,0.0897,0.0929,0.0961,0.1021,0.1043,0.1094,0.1149,0.1162,0.1209,0.1193,0.1255,0.1223,0.1192,0.1191,0.1183,0.1178,0.1234,0.1234,0.1234,0.1234,0.1234,0,0.0759,0.0774,0.0817,0.0823,0.0849,0.0882,0.0926,0.0945,0.0998,0.102,0.108,0.1105,0.1165,0.1212,0.1225,0.1241,0.1268,0.1204,0.1199,0.1211,0.1208,0.1188,0.1182,0.1236,0.1235,0.1235,0.1235,0,0.0732,0.076,0.0776,0.082,0.0836,0.0867,0.0932,0.0953,0.1014,0.1052,0.1075,0.114,0.1196,0.1251,0.1289,0.1266,0.1274,0.1265,0.1309,0.1304,0.1204,0.12,0.1226,0.1225,0.1224,0.1223,0.1223,0,0.0717,0.0723,0.0771,0.0786,0.0813,0.0866,0.0882,0.0943,0.0963,0.1049,0.1052,0.1145,0.118,0.122,0.1268,0.1301,0.1279,0.1283,0.1208,0.1209,0.1202,0.1199,0.1197,0.1221,0.1221,0.1221,0.1221,0,0.0679,0.0709,0.0729,0.0756,0.0784,0.0804,0.0848,0.0849,0.0914,0.0982,0.1009,0.1055,0.1127,0.1176,0.1234,0.1238,0.1278,0.1272,0.1273,0.1202,0.1204,0.1196,0.1195,0.1218,0.1218,0.1218,0.1219,0,0.0661,0.0668,0.0701,0.0722,0.0746,0.0735,0.0762,0.0788,0.0817,0.0907,0.0912,0.1014,0.1098,0.1143,0.1179,0.121,0.1178,0.1128,0.1135,0.1139,0.1086,0.1074,0.1049,0,0,0,0,0,0.0634,0.0642,0.0661,0.0669,0.0688,0.0702,0.0726,0.0755,0.0812,0.0806,0.0861,0.0916,0.0991,0.1046,0.1062,0.1142,0.1182,0.1155,0.1127,0.1201,0.1204,0.1151,0,0,0,0,0,0,0.0618,0.0639,0.0646,0.062,0.0621,0.0625,0.0637,0.0671,0.0676,0.0751,0.08,0.0875,0.0965,0.0987,0.1052,0.1071,0.1037,0.1226,0.1224,0.1199,0.1202,0.1205,0.1152,0,0,0,0,0]},{"header":{"parameterUnit":"m.s-1","parameterCategory":2,"la1":30.2991,"la2":30.254,"lo1":-89.0895,"lo2":-89.0444,"dy":0.0017,"dx":0.0017,"nx":28,"ny":28,"refTime":"2024-05-03T09:00:00:Z","depth":"4","parameterNumber":3,"parameterNumberName":"V-component_of_CURRENTS"},"data":[0,0,0,0,0,0,0,0,0,0,0,0,0,0,0,0,0,0,0,0,0,0,0,0,0,0,0,0,0,0,0,0,0,0,0,0,0,0,0,0,0,0,0,0,0,0,0,0,0,0,0,0,0,0,0,0,0,0,-0.0033,-0.0033,0,-0.0034,-0.0034,-0.0033,-0.0026,-0.0026,-0.0026,-0.0026,-0.0093,-0.0095,-0.0097,0,0,0,0,0,0,0,0,0,0,0,0,0,-0.0019,-0.002,-0.0033,-0.0033,-0.0033,-0.0034,-0.0034,-0.0033,-0.0026,-0.0026,-0.0026,-0.0026,-0.0093,-0.0095,-0.0097,0,0,0,0,0,0,0,0,0,0,0,0,0,-0.0022,-0.002,-0.0033,-0.0031,-0.0031,-0.0034,-0.0034,-0.0033,-0.0027,-0.0026,-0.0026,-0.0026,-0.0092,-0.0094,-0.0097,-0.0117,0,0,-0.0106,-0.0107,0,0,0,0,0,0,0,0,-0.0022,-0.0022,-0.0031,-0.0031,-0.0031,-0.0031,-0.0053,-0.0065,-0.0027,-0.0027,-0.0026,-0.0026,-0.0079,-0.0083,-0.0081,-0.012,-0.0123,-0.0106,-0.0108,-0.0109,-0.011,0,0,0,0,0,0,0,-0.0022,-0.0022,-0.0032,-0.0031,-0.0031,-0.0027,-0.0028,-0.0055,-0.0054,-0.0027,-0.0027,-0.0028,-0.008,-0.0078,-0.0083,-0.0124,-0.0106,-0.0108,-0.011,-0.0111,-0.0183,-0.0184,0,0,0,0,0,0,-0.0025,-0.0022,-0.0032,-0.0032,-0.0027,-0.0028,-0.0028,-0.003,-0.0052,-0.0055,-0.0029,-0.0028,-0.0073,-0.0079,-0.0085,-0.0108,-0.0109,-0.0112,-0.0113,-0.0183,-0.0183,-0.0184,0,0,0,0,0,0,-0.0024,-0.0025,-0.0032,-0.0028,-0.0029,-0.0028,-0.0031,-0.003,-0.003,-0.0053,-0.0057,-0.0029,-0.0074,-0.0081,-0.011,-0.011,-0.0113,-0.0115,-0.0183,-0.0183,-0.0183,-0.0155,0,0,0,0,0,0,-0.0024,-0.0025,-0.0022,-0.0028,-0.0029,-0.003,-0.0031,-0.003,-0.0032,-0.0031,-0.0055,-0.0061,-0.0074,-0.0105,-0.0113,-0.0114,-0.0118,-0.0182,-0.0183,-0.0183,-0.0155,-0.0154,-0.0153,0,0,0,0,0,-0.0023,-0.0015,-0.0022,-0.0023,-0.0027,-0.003,-0.0029,-0.0028,-0.0032,-0.0028,-0.0049,-0.006,-0.0113,-0.0108,-0.0116,-0.0119,-0.0182,-0.0183,-0.0183,-0.0156,-0.0154,-0.0153,0,0,0,0,0,0,-0.0005,-0.0014,-0.0021,-0.0016,-0.0024,-0.0029,-0.0023,-0.003,-0.0041,-0.0048,-0.0068,-0.0075,-0.0098,-0.0116,-0.011,-0.0141,-0.0148,-0.0151,-0.0125,-0.0124,-0.0122,-0.0099,-0.012,0,0,0,0,0,-0.0002,-0.0001,-0.0012,-0.001,-0.0012,-0.0021,-0.0021,-0.0029,-0.0042,-0.0046,-0.0062,-0.0085,-0.0107,-0.0121,-0.0142,-0.0164,-0.0167,-0.017,-0.0169,-0.0168,-0.0155,-0.0151,-0.0148,-0.0185,-0.0185,-0.0185,0,0,0.0002,-0.0001,-0.0001,-0.0006,-0.0011,-0.0011,-0.002,-0.0027,-0.0029,-0.0055,-0.0061,-0.0085,-0.0112,-0.0131,-0.0143,-0.0146,-0.0163,-0.0169,-0.0167,-0.0155,-0.0151,-0.0147,-0.0144,-0.0186,-0.0186,-0.0186,0,0,0.0014,0.0011,0.0015,0.0011,-0.0,-0.0006,-0.0009,-0.0021,-0.0025,-0.0047,-0.006,-0.0077,-0.0117,-0.0122,-0.0135,-0.0142,-0.0157,-0.0159,-0.0134,-0.0131,-0.0127,-0.0123,-0.0136,-0.0134,-0.0157,-0.0157,-0.0157,0,0.0018,0.0023,0.0016,0.0019,0.0019,-0.0003,-0.0001,-0.0009,-0.0029,-0.0027,-0.0048,-0.008,-0.0107,-0.0111,-0.0116,-0.0136,-0.0145,-0.0136,-0.0127,-0.0124,-0.0121,-0.0134,-0.0133,-0.0156,-0.0156,-0.0156,-0.0156,0,0.0032,0.0035,0.0038,0.0035,0.0035,0.0031,0.0017,0.0014,-0.0004,-0.001,-0.0023,-0.0055,-0.0069,-0.0085,-0.0108,-0.0101,-0.0118,-0.0124,-0.0125,-0.0115,-0.0131,-0.0129,-0.0154,-0.0155,-0.0155,-0.0155,0,0,0.0037,0.0046,0.0044,0.0049,0.0041,0.0041,0.0042,0.0043,0.0051,0.0023,0.0034,-0.0004,-0.0017,-0.0032,-0.0057,-0.0058,-0.0059,-0.0085,-0.0086,-0.0089,-0.0065,-0.0083,-0.0084,-0.0065,-0.0064,-0.0064,-0.0089,0,0.0046,0.0061,0.0061,0.007,0.0078,0.0068,0.0078,0.0074,0.0064,0.0069,0.0044,0.0036,0.0001,-0.0011,-0.0017,-0.005,-0.0052,-0.0052,-0.0082,-0.0083,-0.0092,-0.0081,-0.0061,-0.0088,-0.0088,-0.0088,-0.0087,0,0.0054,0.0067,0.0082,0.0098,0.0101,0.0103,0.012,0.012,0.0125,0.0123,0.0117,0.0091,0.0078,0.0046,0.0013,0.0011,-0.0022,-0.0045,-0.0046,-0.0067,-0.0097,-0.0099,-0.0085,-0.0085,-0.0085,-0.0085,-0.0086,0,0.0064,0.0078,0.0094,0.0097,0.0113,0.0122,0.0126,0.0138,0.0152,0.0156,0.0165,0.0145,0.0129,0.0096,0.0029,0.0021,-0.0007,-0.0022,-0.0064,-0.0067,-0.0055,-0.0058,-0.0029,-0.0028,-0.0028,-0.0028,-0.0028,0,0.0071,0.008,0.01,0.0108,0.0133,0.0136,0.0158,0.0169,0.019,0.0218,0.0189,0.0201,0.0141,0.0107,0.0051,-0.0007,0.0009,-0.0052,-0.0067,-0.0047,-0.0049,-0.0055,-0.0058,-0.0029,-0.0029,-0.0029,-0.0029,0,0.0067,0.008,0.0102,0.0128,0.0138,0.015,0.018,0.0204,0.022,0.0253,0.0257,0.0243,0.02,0.0134,0.0075,0.0022,-0.003,-0.0052,-0.0033,-0.0048,-0.01,-0.0101,-0.0097,-0.0098,-0.0098,-0.0099,-0.0099,0,0.0065,0.0077,0.0115,0.0133,0.014,0.0163,0.0191,0.022,0.025,0.0281,0.0303,0.0272,0.0249,0.0157,0.0081,-0.002,-0.0036,-0.0071,-0.0077,-0.0088,-0.0103,-0.0104,-0.0104,-0.01,-0.01,-0.01,-0.0101,0,0.0065,0.0077,0.0098,0.0143,0.0172,0.0208,0.0244,0.0275,0.0314,0.0325,0.0348,0.0298,0.025,0.0165,0.0083,0.0011,-0.0054,-0.0078,-0.0077,-0.0082,-0.0092,-0.0106,-0.0106,-0.0103,-0.0102,-0.0102,-0.0102,0,0.0066,0.008,0.0117,0.0152,0.0195,0.0249,0.0264,0.0306,0.0341,0.0375,0.0378,0.0328,0.0296,0.0181,0.0109,0.0031,0.0008,-0.0024,-0.0026,-0.0025,-0.0003,-0.0004,0.0009,0,0,0,0,0,0.0078,0.0097,0.0126,0.0178,0.0221,0.025,0.0307,0.0324,0.036,0.0384,0.0385,0.0343,0.0241,0.0197,0.0118,0.0086,-0.0015,-0.0012,-0.0055,-0.0114,-0.0111,-0.01,0,0,0,0,0,0,0.0089,0.0116,0.013,0.0196,0.023,0.029,0.0329,0.0353,0.0365,0.0382,0.0332,0.0307,0.0209,0.0285,0.0112,0.0088,0.0046,-0.006,-0.0063,-0.0115,-0.0113,-0.0111,-0.0098,0,0,0,0,0]}]]